FW0256 Weather Reports


time (UTC)temp
C
wind
direction
speed
KPH
gust
KPH
rain 1hr
cm
rain 24hr
cm
rain mn
cm
humidity
%
barometer
mb
20260506032011 6 360 3.2 9.7 0.00 0.00 0.00 81 1014.2
20260506031535 6 360 1.6 9.7 0.00 0.00 0.00 81 1014.2
20260506031011 6 360 1.6 9.7 0.00 0.00 0.00 80 1014.1
20260506030511 6 360 3.2 9.7 0.00 0.00 0.00 80 1014.2
20260506030051 6 360 3.2 9.7 0.00 0.00 0.00 80 1014.2
20260506025510 6 360 1.6 9.7 0.00 0.00 0.00 79 1014.2
20260506025008 6 360 3.2 9.7 0.00 0.00 0.00 79 1014.2
20260506024530 6 360 4.8 9.7 0.00 0.00 0.00 79 1014.2
20260506024008 6 360 1.6 6.4 0.00 0.00 0.00 79 1014.2
20260506023513 6 360 3.2 8.0 0.00 0.00 0.00 79 1014.0
20260506023028 6 360 1.6 8.0 0.00 0.00 0.00 78 1014.2
20260506022510 6 360 1.6 8.0 0.00 0.00 0.00 78 1014.0
20260506022011 6 360 3.2 8.0 0.00 0.00 0.00 78 1014.0
20260506021531 6 360 1.6 8.0 0.00 0.00 0.00 78 1013.9
20260506021009 7 360 4.8 8.0 0.00 0.00 0.00 78 1014.0
20260506020512 7 360 3.2 8.0 0.00 0.00 0.00 77 1014.0
20260506020028 7 0 1.6 6.4 0.00 0.00 0.00 77 1014.2
20260506015514 7 360 1.6 9.7 0.00 0.00 0.00 77 1014.2
20260506015011 7 360 4.8 9.7 0.00 0.00 0.00 77 1014.2
20260506014529 7 360 3.2 12.9 0.00 0.00 0.00 77 1014.1
20260506014010 7 360 3.2 12.9 0.00 0.00 0.00 77 1014.1
20260506013510 7 360 4.8 12.9 0.00 0.00 0.00 76 1014.1
20260506013031 7 360 4.8 12.9 0.00 0.00 0.00 76 1014.2
20260506012507 7 360 4.8 14.5 0.00 0.00 0.00 76 1014.3
20260506012013 7 360 3.2 14.5 0.00 0.00 0.00 76 1014.2
20260506011537 7 360 6.4 14.5 0.00 0.00 0.00 76 1014.2
20260506011013 7 360 4.8 14.5 0.00 0.00 0.00 76 1014.2
20260506010509 7 360 6.4 14.5 0.00 0.00 0.00 75 1014.2
20260506010027 7 360 4.8 19.3 0.00 0.00 0.00 75 1014.3
20260506005509 7 360 8.0 19.3 0.00 0.00 0.00 75 1014.3
20260506005011 7 360 6.4 17.7 0.00 0.00 0.00 75 1014.3
20260506004543 7 360 8.0 17.7 0.00 0.00 0.00 75 1014.4
20260506004010 7 360 6.4 16.1 0.00 0.00 0.00 75 1014.3
20260506003510 7 360 6.4 17.7 0.00 0.00 0.00 75 1014.2
20260506003036 7 360 6.4 17.7 0.00 0.00 0.00 75 1014.3
20260506002511 7 360 8.0 17.7 0.00 0.00 0.00 76 1014.3
20260506002014 7 360 6.4 16.1 0.00 0.00 0.00 77 1014.3
20260506001531 7 360 4.8 17.7 0.00 0.00 0.00 77 1014.5
20260506001009 7 360 4.8 17.7 0.00 0.00 0.00 77 1014.4
20260506000516 7 360 8.0 19.3 0.00 0.00 0.00 77 1014.4
20260506000028 7 360 6.4 19.3 0.00 0.00 0.00 78 1014.3
20260505235508 7 360 6.4 19.3 0.00 0.00 0.00 79 1014.3
20260505235008 7 360 6.4 12.9 0.00 0.00 0.00 79 1014.3
20260505234533 7 360 6.4 12.9 0.00 0.00 0.00 79 1014.3
20260505234008 8 360 6.4 16.1 0.00 0.00 0.00 79 1014.2
20260505233512 8 360 6.4 16.1 0.00 0.00 0.00 78 1014.3
20260505233028 8 360 6.4 17.7 0.00 0.00 0.00 78 1014.3
20260505232512 8 360 8.0 17.7 0.00 0.00 0.00 78 1014.3
20260505232011 8 360 6.4 20.9 0.00 0.00 0.00 77 1014.3
20260505231530 8 360 8.0 20.9 0.00 0.00 0.00 77 1014.3
20260505231013 8 360 8.0 19.3 0.00 0.00 0.00 77 1014.5
20260505230508 8 360 6.4 19.3 0.00 0.00 0.00 77 1014.3
20260505230040 8 360 6.4 17.7 0.00 0.00 0.00 79 1014.4
20260505225511 8 360 6.4 16.1 0.00 0.00 0.00 79 1014.5
20260505225015 8 360 6.4 24.1 0.00 0.00 0.00 79 1014.5
20260505224533 8 360 6.4 24.1 0.00 0.00 0.00 79 1014.4
20260505224009 8 360 4.8 9.7 0.00 0.00 0.00 79 1014.4
20260505223512 8 360 3.2 9.7 0.00 0.00 0.00 79 1014.5
20260505223027 8 360 3.2 12.9 0.00 0.00 0.00 79 1014.4
20260505222508 8 360 4.8 12.9 0.00 0.00 0.00 78 1014.4
20260505222010 8 360 4.8 16.1 0.00 0.00 0.00 78 1014.4
20260505221528 8 360 6.4 17.7 0.00 0.00 0.00 78 1014.4
20260505221011 8 360 4.8 17.7 0.00 0.00 0.00 77 1014.4
20260505220510 8 360 6.4 17.7 0.00 0.00 0.00 77 1014.3
20260505220035 8 360 8.0 17.7 0.00 0.00 0.00 76 1014.2
20260505215510 8 360 3.2 16.1 0.00 0.00 0.00 76 1014.2
20260505215008 8 360 8.0 17.7 0.00 0.00 0.00 76 1014.2
20260505214534 9 360 6.4 19.3 0.00 0.00 0.00 75 1014.3
20260505214010 9 360 8.0 19.3 0.00 0.00 0.00 75 1014.2
20260505213513 9 360 8.0 17.7 0.00 0.00 0.00 75 1014.3
20260505213027 9 360 6.4 17.7 0.00 0.00 0.00 75 1014.3
20260505212509 9 360 6.4 17.7 0.00 0.00 0.00 75 1014.3
20260505212009 9 360 4.8 16.1 0.00 0.00 0.00 78 1014.3
20260505211528 9 360 6.4 19.3 0.00 0.00 0.00 79 1014.3
20260505211012 9 360 8.0 19.3 0.00 0.00 0.00 80 1014.2
20260505210510 10 360 6.4 16.1 0.00 0.00 0.00 80 1014.1
20260505210029 10 360 4.8 16.1 0.00 0.00 0.00 80 1014.0
20260505205509 10 360 4.8 19.3 0.00 0.00 0.00 80 1014.0
20260505205012 10 360 4.8 19.3 0.00 0.00 0.00 80 1014.0
20260505204532 10 360 6.4 17.7 0.00 0.00 0.00 79 1014.0
20260505204008 10 360 8.0 19.3 0.00 0.00 0.00 79 1013.9
20260505203508 10 360 8.0 19.3 0.00 0.00 0.00 79 1014.0
20260505203033 10 360 8.0 17.7 0.00 0.00 0.00 79 1013.9
20260505202509 10 360 8.0 17.7 0.00 0.00 0.00 79 1013.9
20260505202009 10 360 4.8 14.5 0.00 0.00 0.00 79 1013.8
20260505201534 10 360 6.4 14.5 0.00 0.00 0.00 79 1013.8
20260505201011 10 360 4.8 14.5 0.00 0.00 0.00 78 1013.7
20260505200509 10 360 6.4 14.5 0.00 0.00 0.00 78 1013.7
20260505200030 10 360 6.4 14.5 0.00 0.00 0.00 78 1013.7
20260505195514 10 360 6.4 17.7 0.00 0.00 0.00 78 1013.6
20260505195009 10 360 4.8 17.7 0.00 0.00 0.00 77 1013.6
20260505194529 10 360 8.0 17.7 0.00 0.00 0.00 77 1013.5
20260505194011 10 360 9.7 17.7 0.00 0.00 0.00 77 1013.4
20260505193509 10 360 8.0 17.7 0.00 0.00 0.00 77 1013.4
20260505193030 10 360 9.7 20.9 0.00 0.00 0.00 78 1013.4
20260505192508 11 360 6.4 20.9 0.00 0.00 0.00 77 1013.4
20260505192007 11 360 6.4 19.3 0.00 0.00 0.00 76 1013.4
20260505191527 11 360 9.7 19.3 0.00 0.00 0.00 75 1013.2
20260505191011 11 360 8.0 22.5 0.00 0.00 0.00 72 1013.3
20260505190512 12 360 9.7 22.5 0.00 0.00 0.00 69 1013.1
20260505190038 12 360 4.8 14.5 0.00 0.00 0.00 65 1013.1
20260505185509 12 360 4.8 14.5 0.00 0.00 0.00 65 1013.0
20260505185012 12 360 3.2 14.5 0.00 0.00 0.00 65 1012.9
20260505184532 12 360 4.8 12.9 0.00 0.00 0.00 64 1012.9
20260505184010 12 360 4.8 12.9 0.00 0.00 0.00 64 1012.9
20260505183510 12 360 3.2 12.9 0.00 0.00 0.00 64 1012.9
20260505183029 12 360 3.2 12.9 0.00 0.00 0.00 65 1012.9
20260505182510 12 360 3.2 12.9 0.00 0.00 0.00 65 1012.8
20260505182011 12 360 4.8 14.5 0.00 0.00 0.00 64 1012.8
20260505181529 12 360 3.2 14.5 0.00 0.00 0.00 64 1012.8
20260505181008 12 360 4.8 16.1 0.00 0.00 0.00 64 1012.8
20260505180510 12 360 4.8 17.7 0.00 0.00 0.00 63 1012.8
20260505180036 12 360 6.4 17.7 0.00 0.00 0.00 62 1012.8
20260505175510 13 360 3.2 14.5 0.00 0.00 0.00 62 1012.9
20260505175008 13 360 3.2 9.7 0.00 0.00 0.00 62 1012.8
20260505174528 13 360 4.8 12.9 0.00 0.00 0.00 62 1012.8
20260505174010 13 360 3.2 14.5 0.00 0.00 0.00 62 1012.8
20260505173511 13 360 4.8 14.5 0.00 0.00 0.00 61 1012.8
20260505173029 13 360 3.2 19.3 0.00 0.00 0.00 61 1012.8
20260505172511 13 360 4.8 19.3 0.00 0.00 0.00 60 1012.8
20260505172009 13 360 4.8 14.5 0.00 0.00 0.00 60 1012.9
20260505171529 13 360 3.2 9.7 0.00 0.00 0.00 61 1012.8
20260505171013 13 360 1.6 9.7 0.00 0.00 0.00 62 1012.9
20260505170510 13 360 3.2 14.5 0.00 0.00 0.00 63 1012.9
20260505170031 13 360 1.6 14.5 0.00 0.00 0.00 62 1012.9
20260505165510 13 360 4.8 14.5 0.00 0.00 0.00 62 1012.9
20260505165008 13 360 4.8 14.5 0.00 0.00 0.00 62 1012.8
20260505164526 13 360 3.2 16.1 0.00 0.00 0.00 62 1012.8
20260505164010 13 360 4.8 16.1 0.00 0.00 0.00 61 1012.9
20260505163509 13 360 6.4 16.1 0.00 0.00 0.00 60 1012.9
20260505163036 13 360 3.2 12.9 0.00 0.00 0.00 60 1012.8
20260505162509 13 360 4.8 12.9 0.00 0.00 0.00 61 1012.9
20260505162013 13 360 4.8 9.7 0.00 0.00 0.00 61 1012.8
20260505161528 13 360 4.8 12.9 0.00 0.00 0.00 61 1012.8
20260505161009 13 360 3.2 12.9 0.00 0.00 0.00 62 1012.8
20260505160510 13 360 4.8 12.9 0.00 0.00 0.00 61 1012.9
20260505153039 13 360 3.2 16.1 0.00 0.00 0.00 61 1013.1
20260505152509 13 360 3.2 12.9 0.00 0.00 0.00 61 1013.1
20260505152013 13 360 4.8 12.9 0.00 0.00 0.00 61 1013.0
20260505151530 13 360 4.8 9.7 0.00 0.00 0.00 61 1013.0
20260505151009 13 360 4.8 8.0 0.00 0.00 0.00 61 1013.0
20260505150511 13 360 3.2 12.9 0.00 0.00 0.00 61 1013.1
20260505140510 13 360 6.4 17.7 0.00 0.00 0.00 61 1013.1
20260505125015 13 360 4.8 17.7 0.00 0.00 0.00 62 1013.1
20260505124530 13 360 8.0 17.7 0.00 0.00 0.00 61 1013.1
20260505124012 13 360 4.8 17.7 0.00 0.00 0.00 62 1013.1
20260505123511 13 360 4.8 17.7 0.00 0.00 0.00 62 1013.2
20260505123028 13 360 4.8 14.5 0.00 0.00 0.00 62 1013.1
20260505122509 13 360 4.8 14.5 0.00 0.00 0.00 62 1013.1
20260505122011 13 360 6.4 16.1 0.00 0.00 0.00 62 1013.1
20260505121532 13 360 4.8 16.1 0.00 0.00 0.00 62 1013.1
20260505121009 13 360 6.4 16.1 0.00 0.00 0.00 61 1013.2
20260505120510 13 360 4.8 16.1 0.00 0.00 0.00 61 1013.1
20260505120040 13 360 4.8 16.1 0.00 0.00 0.00 61 1013.1
20260505115510 13 360 6.4 14.5 0.00 0.00 0.00 60 1013.1
20260505115009 14 360 3.2 14.5 0.00 0.00 0.00 60 1013.1
20260505114529 14 360 4.8 16.1 0.00 0.00 0.00 58 1013.0
20260505114009 15 360 4.8 16.1 0.00 0.00 0.00 58 1013.1
20260505113511 15 360 4.8 16.1 0.00 0.00 0.00 58 1013.1
20260505113028 15 360 4.8 16.1 0.00 0.00 0.00 59 1013.2
20260505112508 14 360 6.4 14.5 0.00 0.00 0.00 60 1013.1
20260505112008 14 360 1.6 16.1 0.00 0.00 0.00 63 1013.2
20260505111532 13 360 4.8 17.7 0.00 0.00 0.00 63 1013.2
20260505111008 13 360 4.8 17.7 0.00 0.00 0.00 61 1013.2
20260505110511 14 360 8.0 19.3 0.00 0.00 0.00 60 1013.3
20260505102010 13 360 4.8 12.9 0.00 0.00 0.00 64 1013.8
20260505101533 13 360 3.2 12.9 0.00 0.00 0.00 64 1013.8
20260505101011 13 360 3.2 12.9 0.00 0.00 0.00 66 1013.7
20260505100513 12 360 4.8 12.9 0.00 0.00 0.00 64 1013.7
20260505100031 13 360 4.8 12.9 0.00 0.00 0.00 66 1013.7
20260505095509 12 360 1.6 9.7 0.00 0.00 0.00 68 1013.7
20260505095009 12 360 3.2 9.7 0.00 0.00 0.00 68 1013.8
20260505094530 12 360 3.2 8.0 0.00 0.00 0.00 68 1013.7
20260505094012 12 360 1.6 9.7 0.00 0.00 0.00 68 1013.8
20260505093507 12 360 3.2 12.9 0.00 0.00 0.00 68 1013.9
20260505093030 12 360 3.2 12.9 0.00 0.00 0.00 69 1013.8
20260505092513 12 360 3.2 12.9 0.00 0.00 0.00 69 1013.8
20260505092010 12 360 3.2 14.5 0.00 0.00 0.00 69 1013.8
20260505091532 12 360 3.2 14.5 0.00 0.00 0.00 71 1013.8
20260505091009 12 360 4.8 14.5 0.00 0.00 0.00 71 1013.6
20260505090510 12 360 3.2 14.5 0.00 0.00 0.00 72 1013.7
20260505090031 12 360 4.8 16.1 0.00 0.00 0.00 72 1013.8
20260505085510 12 360 4.8 16.1 0.00 0.00 0.00 73 1013.8
20260505085009 12 360 3.2 16.1 0.00 0.00 0.00 73 1013.8
20260505084543 12 360 3.2 14.5 0.00 0.00 0.00 73 1013.9
20260505084012 12 360 6.4 14.5 0.00 0.00 0.00 71 1013.9
20260505083509 12 360 1.6 9.7 0.00 0.00 0.00 72 1013.8
20260505083043 12 360 3.2 12.9 0.00 0.00 0.00 72 1013.9
20260505082512 12 360 4.8 16.1 0.00 0.00 0.00 71 1013.9
20260505082013 12 360 3.2 16.1 0.00 0.00 0.00 72 1013.9
20260505081537 11 360 6.4 14.5 0.00 0.00 0.00 71 1013.8
20260505081015 11 360 3.2 14.5 0.00 0.00 0.00 72 1013.9
20260505080512 11 360 4.8 17.7 0.00 0.00 0.00 73 1013.9
20260505080040 11 360 6.4 17.7 0.00 0.00 0.00 74 1013.9
20260505075509 11 360 3.2 12.9 0.00 0.00 0.00 73 1013.9
20260505075011 11 360 4.8 12.9 0.00 0.00 0.00 73 1014.0
20260505074529 11 360 4.8 12.9 0.00 0.00 0.00 73 1013.9
20260505074012 11 360 1.6 12.9 0.00 0.00 0.00 74 1013.9
20260505073512 11 360 4.8 12.9 0.00 0.00 0.00 75 1013.8
20260505073040 11 360 4.8 12.9 0.00 0.00 0.00 76 1013.8
20260505072513 10 360 4.8 12.9 0.00 0.00 0.00 77 1013.8
20260505072011 10 360 4.8 12.9 0.00 0.00 0.00 78 1013.8
20260505071542 10 360 3.2 14.5 0.00 0.00 0.00 79 1013.9
20260505071011 10 360 4.8 14.5 0.00 0.00 0.00 79 1013.9
20260505070515 10 360 3.2 9.7 0.00 0.00 0.00 80 1013.9
20260505070039 10 360 3.2 9.7 0.00 0.00 0.00 81 1014.2
20260505065510 9 360 3.2 12.9 0.00 0.00 0.00 82 1014.0
20260505065011 9 17 1.6 12.9 0.00 0.00 0.00 81 1014.1
20260505064534 10 360 3.2 12.9 0.00 0.00 0.00 81 1014.0
20260505064011 9 360 3.2 9.7 0.00 0.00 0.00 82 1014.0
20260505063509 9 360 3.2 12.9 0.00 0.00 0.00 83 1014.0
20260505063036 9 360 3.2 12.9 0.00 0.00 0.00 83 1014.1
20260505062512 9 0 3.2 9.7 0.00 0.00 0.00 84 1014.0
20260505062013 8 360 3.2 9.7 0.00 0.00 0.00 84 1014.1
20260505061531 8 360 3.2 9.7 0.00 0.00 0.00 84 1014.0
20260505061010 8 360 1.6 9.7 0.00 0.00 0.00 85 1014.0
20260505060514 8 360 3.2 9.7 0.00 0.00 0.00 85 1013.9
20260505060050 8 0 1.6 9.7 0.00 0.00 0.00 86 1013.9
20260505055513 8 360 1.6 9.7 0.00 0.00 0.00 86 1013.9
20260505055014 8 360 3.2 9.7 0.00 0.00 0.00 86 1014.0
20260505054531 7 360 1.6 9.7 0.00 0.00 0.00 87 1014.0
20260505054015 7 360 1.6 9.7 0.00 0.00 0.00 87 1013.8
20260505053514 7 360 3.2 9.7 0.00 0.00 0.00 87 1013.9
20260505053029 7 360 3.2 8.0 0.00 0.00 0.00 87 1014.0
20260505052509 7 360 3.2 8.0 0.00 0.00 0.00 87 1014.0
20260505052011 7 360 3.2 8.0 0.00 0.00 0.00 87 1014.0
20260505051528 7 360 1.6 12.9 0.00 0.00 0.00 86 1013.9
20260505051010 7 360 3.2 12.9 0.00 0.00 0.00 86 1014.0
20260505050510 7 360 4.8 9.7 0.00 0.00 0.00 86 1013.9
20260505041537 7 360 1.6 8.0 0.00 0.00 0.00 86 1013.7
20260505041012 7 360 1.6 8.0 0.00 0.00 0.00 87 1013.7
20260505040517 7 360 3.2 8.0 0.00 0.00 0.00 87 1013.7
20260505040027 7 360 3.2 8.0 0.00 0.00 0.00 87 1013.6
20260505035510 7 360 1.6 8.0 0.00 0.00 0.00 86 1013.7
20260505035015 7 360 1.6 14.5 0.00 0.00 0.00 86 1013.6
20260505034528 7 360 3.2 14.5 0.00 0.00 0.00 86 1013.6
20260505034013 7 360 1.6 8.0 0.00 0.00 0.00 86 1013.6
20260505033510 7 0 1.6 6.4 0.00 0.00 0.00 86 1013.7
20260505033026 7 360 0.0 6.4 0.00 0.00 0.00 86 1013.8
20260505032511 7 360 1.6 6.4 0.00 0.00 0.00 86 1013.7